Regional Weather Roundup
Issued by NWS Mobile, AL

Home | Current Version | Previous Version | Text Only | Print | Product List | Glossary On
Versions: 1 2 3 4 5 6 7 8 9 10 11 12 13 14 15 16 17 18 19 20 21 22 23 24 25 26 27 28 29 30 31 32 33 34 35 36 37 38 39 40 41 42 43 44 45 46 47 48 49 50
000
ASUS44 KMOB 031717
RWRMOB
REGIONAL WEATHER ROUNDUP
NATIONAL WEATHER SERVICE MOBILE AL
1200 PM CDT WED JUN 03 2015

ALZ061>064-031800-
COASTAL ALABAMA


CITY           SKY/WX    TMP DP  RH WIND       PRES   REMARKS
MOBILE REG APT MOSUNNY   84  67  56 VRB3      29.95F
BROOKLEY FIELD MOSUNNY   83  68  60 NE6       29.95F
GULF SHORES    MOSUNNY   85  72  66 S7        29.93F

$$

ALZ051>060-031800-
INTERIOR SOUTHWEST AND SOUTH CENTRAL ALABAMA


CITY           SKY/WX    TMP DP  RH WIND       PRES   REMARKS
ANDALUSIA/OPP  MOSUNNY   89  63  41 CALM      29.94F
EVERGREEN      SUNNY     84  65  52 CALM      29.96S
FLORALA        PTSUNNY   82  67  60 CALM      29.96F
GREENVILLE     FAIR      84  61  45 CALM      29.95F

$$

FLZ001>006-031800-
WESTERN FLORIDA PANHANDLE


CITY           SKY/WX    TMP DP  RH WIND       PRES   REMARKS
CRESTVIEW      SUNNY     87  69  54 E6        29.95F
DESTIN         SUNNY     85  71  63 SE9       29.94F
DUKE FIELD     PTSUNNY   83  66  55 N3        29.94R
MARY ESTHER    SUNNY     84  69  61 SE12      29.93S
MILTON         MOSUNNY   86  69  56 W5        29.93F
PENSACOLA      SUNNY     84  70  62 E7        29.93F
NAS PENSACOLA  MOSUNNY   82  70  66 S10       29.92F
VALPARAISO     MOSUNNY   84  71  65 SE10      29.94S

$$

...MARINE OBSERVATIONS...

STATION/POSITION TIME  SKY/WX   TEMP    WIND        PRES    VSBY
                                AIR SEA DIR/SP/G
                 (UTC)          (F)     (DEG/KT/KT) (MB)    (MI)
PASCAGOULA       1600            80      CALM  /  2 1014.0S
PETIT BOIS ISL   1600            80      50/  5/  7 1014.5R
E DAUPHIN ISLAND 1700            78      30/  4/  5 1013.5F
MIDDLE BAY LIGHT 1600            78      10/  7     1012.9F
USCG MOBILE BAY  1600            80 81   60/  4/  5 1013.2F
STATE DOCKS      1600            84 79              1014.0F
MEAHER PARK      1700            83     320/  4     1012.9F
FORT MORGAN      1600            79      30/  5/  7 1013.6S
12 S ORANGE BCH  1650            80 83   70/  2/  4 1013.2F
WVE H/P(F/S)=  1/ 4

PENSACOLA BAY    1600            86 82   CALM  /  4 1014.2F
64 S DAUPHIN ISL 1650            80 84   40/  4/  4 1014.0S
WVE H/P(F/S)=  1/ 3

67 S FORT MORGAN 1630            81     360/  4     1013.9S
115 SE PENSACOLA 1650            79 83  140/  4/  4 1014.8S
WVE H/P(F/S)=  1/ 4

MID GULF/42001   1650            81 84   40/  6/  8 1014.6R
WVE H/P(F/S)=  1/ 5

EAST GULF/42003  1650            79 83   20/  8/ 10 1013.8R
WVE H/P(F/S)=  2/ 6


$$

...NEARBY LOCATIONS

CITY           SKY/WX    TMP DP  RH WIND       PRES   REMARKS
GULFPORT       SUNNY     83  67  58 CALM      29.93F
BILOXI         SUNNY     84  70  62 S7        29.93F
PASCAGOULA     PTSUNNY   84  72  67 VRB3      29.93F
HATTIESBURG    MOSUNNY   82  65  56 VRB3      29.97F
LAUREL         MOSUNNY   82  63  51 N7        29.98F
MERIDIAN       MOSUNNY   80  61  52 NE7       29.98F
MERIDIAN NAS   MOSUNNY   79  60  52 CALM      29.99S
MONTGOMERY     PTSUNNY   84  64  50 NW8       29.96R
MAXWELL AFB    MOSUNNY   83  65  54 NW8       29.95R
TROY           MOSUNNY   85  65  51 NW5       29.96S
FORT RUCKER      N/A     85  67  54 VRB3      29.94F
DALEVILLE      SUNNY     84  68  57 S6        29.94F
DOTHAN         MOSUNNY   84  67  56 SW3       29.98F

$$

...OTHER SURROUNDING LOCATIONS...

CITY           SKY/WX    TMP DP  RH WIND       PRES   REMARKS
BIRMINGHAM     MOSUNNY   78  61  55 W5        30.00S
TUSCALOOSA     MOSUNNY   79  58  48 VRB5      29.98F
COLUMBUS GA    MOSUNNY   82  66  58 CALM      29.95F
PANAMA CITY    NOT AVBL
TALLAHASSEE    PTSUNNY   87  66  49 W8        29.95F
BATON ROUGE    PTSUNNY   84  66  54 MISG      29.96S
NEW ORLEANS    MOSUNNY   85  67  54 N8        29.94F
SLIDELL        SUNNY     86  69  56 VRB5      29.94F
JACKSON        MOSUNNY   78  59  51 VRB7      29.98F
MCCOMB         MOSUNNY   80  64  58 VRB3      29.97F

$$

...SURROUNDING MARINE OBSERVATIONS...

STATION/POSITION TIME  SKY/WX   TEMP    WIND        PRES    VSBY
                                AIR SEA DIR/SP/G
                 (UTC)          (F)     (DEG/KT/KT) (MB)    (MI)
WAVELAND         1600            78 83   40/  2/  4 1014.3F
PASCAGOULA RGN A 1600            80     270/  3/  5 1013.6F
PASCAGOULA PORT  1600               83                N/A
GRAND ISLE       1600            83 85  360/  2/  3 1014.3R
SOUTHWEST PASS   1700            82     310/  5/  6 1014.3F
PILOT STATION E  1600            85 75  330/  7/  9 1014.6F
SHELL BEACH      1600            80 85   30/  4/  5 1013.6F
PANAMA CITY      1600            81 83  220/  4/  6 1013.9R
APALACHICOLA     1600            80 80  170/  4/  6 1014.7R
TYNDALL TOWER C  1700            78     120/  6/  7 1014.7F
S APLCHCLA/42036 1650            79 83   60/  4/  6 1014.8S
WVE H/P(F/S)=  2/ 5


$$




USA.gov is the U.S. government's official web portal to all federal, state and local government web resources and services.